Time,TemperatureF,DewpointF,PressureIn,WindDirection,WindDirectionDegrees,WindSpeedMPH,WindSpeedGustMPH,Humidity,HourlyPrecipIn,Conditions,Clouds,dailyrainin,SolarRadiationWatts/m^2,SoftwareType,DateUTC
2013-02-24 00:00:00,32.4,17.1,29.83,West,270,6.9,6.9,53,0.00,OVC,,0.05,0.0,WeatherDisplay:10.37,2013-02-24 05:00:00,
2013-02-24 00:05:00,32.4,17.1,29.83,West,270,5.8,5.8,53,0.00,RA,,0.00,0.0,WeatherDisplay:10.37,2013-02-24 05:05:00,
2013-02-24 00:10:00,32.4,17.1,29.83,WSW,248,5.8,5.8,53,0.00,OVC,,0.00,0.0,WeatherDisplay:10.37,2013-02-24 05:10:00,
2013-02-24 00:15:00,32.4,17.1,29.83,West,270,8.7,8.7,53,0.00,OVC,,0.00,0.0,WeatherDisplay:10.37,2013-02-24 05:15:00,
2013-02-24 00:20:00,32.4,17.1,29.83,WSW,248,8.1,8.1,53,0.00,OVC,,0.00,0.0,WeatherDisplay:10.37,2013-02-24 05:20:00,
2013-02-24 00:25:00,32.4,17.1,29.83,WSW,248,6.0,6.2,53,0.00,OVC,,0.00,0.0,WeatherDisplay:10.37,2013-02-24 05:25:00,
2013-02-24 00:30:00,32.4,17.1,29.83,WSW,248,8.1,8.1,53,0.00,OVC,,0.00,0.0,WeatherDisplay:10.37,2013-02-24 05:30:00,
2013-02-24 00:35:00,32.2,16.9,29.83,WSW,248,4.6,4.6,53,0.00,OVC,,0.00,0.0,WeatherDisplay:10.37,2013-02-24 05:35:00,
2013-02-24 00:40:00,32.2,16.9,29.83,WSW,248,5.9,5.9,53,0.00,OVC,,0.00,0.0,WeatherDisplay:10.37,2013-02-24 05:40:00,
2013-02-24 00:45:00,32.2,16.9,29.83,West,270,5.8,5.8,53,0.00,OVC,,0.00,0.0,WeatherDisplay:10.37,2013-02-24 05:45:00,
2013-02-24 00:50:00,32.2,16.9,29.83,West,270,5.6,5.6,53,0.00,OVC,,0.00,0.0,WeatherDisplay:10.37,2013-02-24 05:50:00,
2013-02-24 00:55:00,32.2,16.9,29.83,West,270,6.9,6.9,53,0.00,OVC,,0.00,0.0,WeatherDisplay:10.37,2013-02-24 05:55:00,
2013-02-24 01:00:00,32.4,17.1,29.83,West,270,9.2,9.2,53,0.00,OVC,,0.00,0.0,WeatherDisplay:10.37,2013-02-24 06:00:00,
2013-02-24 01:05:00,32.2,16.9,29.83,WSW,248,5.8,5.8,53,0.00,OVC,,0.00,0.0,WeatherDisplay:10.37,2013-02-24 06:05:00,
2013-02-24 01:10:00,32.2,16.9,29.83,WSW,248,6.2,6.2,53,0.00,OVC,,0.00,0.0,WeatherDisplay:10.37,2013-02-24 06:10:00,
2013-02-24 01:15:00,32.2,16.9,29.83,West,270,9.2,9.2,53,0.00,OVC,,0.00,0.0,WeatherDisplay:10.37,2013-02-24 06:15:00,
2013-02-24 01:20:00,32.2,16.9,29.83,West,270,8.1,8.1,53,0.00,OVC,,0.00,0.0,WeatherDisplay:10.37,2013-02-24 06:20:00,
2013-02-24 01:25:00,32.2,16.9,29.83,WSW,248,8.1,8.1,53,0.00,OVC,,0.00,0.0,WeatherDisplay:10.37,2013-02-24 06:25:00,
2013-02-24 01:30:00,32.2,16.9,29.83,West,270,6.9,6.9,53,0.00,OVC,,0.00,0.0,WeatherDisplay:10.37,2013-02-24 06:30:00,
2013-02-24 01:35:00,32.2,16.9,29.83,WSW,248,6.9,6.9,53,0.00,OVC,,0.00,0.0,WeatherDisplay:10.37,2013-02-24 06:35:00,
2013-02-24 01:40:00,32.2,16.9,29.83,West,270,6.9,6.9,53,0.00,OVC,,0.00,0.0,WeatherDisplay:10.37,2013-02-24 06:40:00,
2013-02-24 01:45:00,32.2,16.9,29.83,WSW,248,6.9,6.9,53,0.00,OVC,,0.00,0.0,WeatherDisplay:10.37,2013-02-24 06:45:00,
2013-02-24 01:50:00,32.2,16.9,29.83,West,270,4.9,4.9,53,0.00,OVC,,0.00,0.0,WeatherDisplay:10.37,2013-02-24 06:50:00,
2013-02-24 01:55:00,32.2,16.9,29.83,WSW,248,7.4,7.4,53,0.00,OVC,,0.00,0.0,WeatherDisplay:10.37,2013-02-24 06:55:00,
2013-02-24 02:00:00,32.2,16.9,29.83,West,270,6.9,6.9,53,0.00,OVC,,0.00,0.0,WeatherDisplay:10.37,2013-02-24 07:00:00,
2013-02-24 02:05:00,32.0,16.8,29.83,WNW,292,8.1,8.1,53,0.00,OVC,,0.00,0.0,WeatherDisplay:10.37,2013-02-24 07:05:00,
2013-02-24 02:10:00,32.0,16.8,29.83,WSW,248,7.4,7.4,53,0.00,OVC,,0.00,0.0,WeatherDisplay:10.37,2013-02-24 07:10:00,
2013-02-24 02:15:00,32.0,16.8,29.83,WNW,292,6.9,6.9,53,0.00,OVC,,0.00,0.0,WeatherDisplay:10.37,2013-02-24 07:15:00,
2013-02-24 02:20:00,32.0,16.8,29.83,West,270,8.7,8.7,53,0.00,OVC,,0.00,0.0,WeatherDisplay:10.37,2013-02-24 07:20:00,
2013-02-24 02:26:00,32.0,16.8,29.83,West,270,8.5,8.5,53,0.00,OVC,,0.00,0.0,WeatherDisplay:10.37,2013-02-24 07:26:00,
2013-02-24 02:31:00,32.0,16.8,29.83,West,270,8.1,8.1,53,0.00,OVC,,0.00,0.0,WeatherDisplay:10.37,2013-02-24 07:31:00,
2013-02-24 02:36:00,32.0,16.8,29.83,WNW,292,9.2,9.2,53,0.00,OVC,,0.00,0.0,WeatherDisplay:10.37,2013-02-24 07:36:00,
2013-02-24 02:41:00,32.0,16.8,29.83,West,270,8.1,8.1,53,0.00,OVC,,0.00,0.0,WeatherDisplay:10.37,2013-02-24 07:41:00,
2013-02-24 02:46:00,32.0,16.8,29.83,West,270,8.1,8.1,53,0.00,OVC,,0.00,0.0,WeatherDisplay:10.37,2013-02-24 07:46:00,
2013-02-24 02:51:00,31.8,16.6,29.83,West,270,7.4,7.4,53,0.00,OVC,,0.00,0.0,WeatherDisplay:10.37,2013-02-24 07:51:00,
2013-02-24 02:56:00,32.0,16.8,29.80,West,270,8.7,8.7,53,0.00,OVC,,0.00,0.0,WeatherDisplay:10.37,2013-02-24 07:56:00,
2013-02-24 03:01:00,31.8,16.6,29.80,WSW,248,7.4,7.4,53,0.00,OVC,,0.00,0.0,WeatherDisplay:10.37,2013-02-24 08:01:00,
2013-02-24 03:06:00,32.0,16.8,29.80,West,270,8.1,8.7,53,0.00,OVC,,0.00,0.0,WeatherDisplay:10.37,2013-02-24 08:06:00,
2013-02-24 03:11:00,32.0,16.8,29.83,West,270,9.2,9.2,53,0.00,OVC,,0.00,0.0,WeatherDisplay:10.37,2013-02-24 08:11:00,
2013-02-24 03:16:00,32.0,16.8,29.83,WSW,248,5.9,5.9,53,0.00,OVC,,0.00,0.0,WeatherDisplay:10.37,2013-02-24 08:16:00,
2013-02-24 03:21:00,32.0,16.8,29.83,West,270,6.9,6.9,53,0.00,OVC,,0.00,0.0,WeatherDisplay:10.37,2013-02-24 08:21:00,
2013-02-24 03:26:00,32.0,16.8,29.83,WSW,248,6.2,6.2,53,0.00,OVC,,0.00,0.0,WeatherDisplay:10.37,2013-02-24 08:26:00,
2013-02-24 03:31:00,31.8,16.6,29.83,West,270,5.8,5.8,53,0.00,OVC,,0.00,0.0,WeatherDisplay:10.37,2013-02-24 08:31:00,
2013-02-24 03:36:00,31.8,16.6,29.83,West,270,3.5,3.5,53,0.00,OVC,,0.00,0.0,WeatherDisplay:10.37,2013-02-24 08:36:00,
2013-02-24 03:41:00,31.8,16.6,29.83,West,270,6.2,6.2,53,0.00,OVC,,0.00,0.0,WeatherDisplay:10.37,2013-02-24 08:41:00,
2013-02-24 03:46:00,32.0,16.8,29.83,West,270,5.8,6.2,53,0.00,OVC,,0.00,0.0,WeatherDisplay:10.37,2013-02-24 08:46:00,
2013-02-24 03:51:00,31.8,16.6,29.83,West,270,5.8,5.8,53,0.00,OVC,,0.00,0.0,WeatherDisplay:10.37,2013-02-24 08:51:00,
2013-02-24 03:56:00,31.6,16.4,29.80,West,270,4.6,4.6,53,0.00,OVC,,0.00,0.0,WeatherDisplay:10.37,2013-02-24 08:56:00,
2013-02-24 04:01:00,31.8,16.6,29.80,West,270,5.8,5.8,53,0.00,OVC,,0.00,0.0,WeatherDisplay:10.37,2013-02-24 09:01:00,
2013-02-24 04:06:00,31.8,16.6,29.80,WSW,248,4.6,4.6,53,0.00,OVC,,0.00,0.0,WeatherDisplay:10.37,2013-02-24 09:06:00,
2013-02-24 04:11:00,31.8,16.6,29.83,West,270,5.8,5.8,53,0.00,OVC,,0.00,0.0,WeatherDisplay:10.37,2013-02-24 09:11:00,
2013-02-24 04:16:00,31.6,16.4,29.83,WSW,248,4.6,4.6,53,0.00,OVC,,0.00,0.0,WeatherDisplay:10.37,2013-02-24 09:16:00,
2013-02-24 04:21:00,31.6,16.4,29.83,WSW,248,4.7,4.7,53,0.00,OVC,,0.00,0.0,WeatherDisplay:10.37,2013-02-24 09:21:00,
2013-02-24 04:26:00,31.6,16.4,29.83,WSW,248,3.8,3.8,53,0.00,OVC,,0.00,0.0,WeatherDisplay:10.37,2013-02-24 09:26:00,
2013-02-24 04:31:00,31.6,16.4,29.83,WSW,248,3.5,3.5,53,0.00,OVC,,0.00,0.0,WeatherDisplay:10.37,2013-02-24 09:31:00,
2013-02-24 04:36:00,31.6,16.4,29.83,WSW,248,4.6,4.6,53,0.00,OVC,,0.00,0.0,WeatherDisplay:10.37,2013-02-24 09:36:00,
2013-02-24 04:41:00,31.5,16.3,29.83,West,270,4.6,4.6,53,0.00,OVC,,0.00,0.0,WeatherDisplay:10.37,2013-02-24 09:41:00,
2013-02-24 04:46:00,31.5,16.3,29.83,West,270,4.3,4.3,53,0.00,OVC,,0.00,0.0,WeatherDisplay:10.37,2013-02-24 09:46:00,
2013-02-24 04:51:00,31.5,16.3,29.83,WSW,248,4.6,4.6,53,0.00,OVC,,0.00,0.0,WeatherDisplay:10.37,2013-02-24 09:51:00,
2013-02-24 04:56:00,31.5,16.3,29.83,WSW,248,0.0,0.0,53,0.00,OVC,,0.00,0.0,WeatherDisplay:10.37,2013-02-24 09:56:00,
2013-02-24 05:01:00,31.5,16.3,29.83,WSW,248,5.8,5.8,53,0.00,OVC,,0.00,0.0,WeatherDisplay:10.37,2013-02-24 10:01:00,
2013-02-24 05:06:00,31.5,16.3,29.83,WSW,248,4.7,4.7,53,0.00,OVC,,0.00,0.0,WeatherDisplay:10.37,2013-02-24 10:06:00,
2013-02-24 05:11:00,31.5,16.3,29.83,WSW,248,5.8,5.8,53,0.00,OVC,,0.00,0.0,WeatherDisplay:10.37,2013-02-24 10:11:00,
2013-02-24 05:16:00,31.5,16.3,29.83,WSW,248,4.6,4.6,53,0.00,OVC,,0.00,0.0,WeatherDisplay:10.37,2013-02-24 10:16:00,
2013-02-24 05:21:00,31.5,16.3,29.83,WSW,248,4.6,4.6,53,0.00,OVC,,0.00,0.0,WeatherDisplay:10.37,2013-02-24 10:21:00,
2013-02-24 05:26:00,31.5,16.3,29.83,WSW,248,4.9,4.9,53,0.00,OVC,,0.00,0.0,WeatherDisplay:10.37,2013-02-24 10:26:00,
2013-02-24 05:31:00,31.5,16.3,29.83,WSW,248,4.6,4.6,53,0.00,OVC,,0.00,0.0,WeatherDisplay:10.37,2013-02-24 10:31:00,
2013-02-24 05:36:00,31.5,16.3,29.83,WSW,248,6.9,6.9,53,0.00,OVC,,0.00,0.0,WeatherDisplay:10.37,2013-02-24 10:36:00,
2013-02-24 05:41:00,31.5,16.3,29.83,WSW,248,5.8,5.8,53,0.00,OVC,,0.00,0.0,WeatherDisplay:10.37,2013-02-24 10:41:00,
2013-02-24 05:46:00,31.5,16.3,29.83,WSW,248,4.6,4.6,53,0.00,OVC,,0.00,0.0,WeatherDisplay:10.37,2013-02-24 10:46:00,
2013-02-24 05:51:00,31.3,16.1,29.83,WSW,248,3.5,3.5,53,0.00,OVC,,0.00,0.0,WeatherDisplay:10.37,2013-02-24 10:51:00,
2013-02-24 05:56:00,31.3,16.1,29.83,WSW,248,5.9,5.9,53,0.00,OVC,,0.00,0.0,WeatherDisplay:10.37,2013-02-24 10:56:00,
2013-02-24 06:01:00,31.5,16.3,29.83,WSW,248,6.0,6.0,53,0.00,-SN,,0.00,0.0,WeatherDisplay:10.37,2013-02-24 11:01:00,
2013-02-24 06:06:00,31.5,16.3,29.83,WSW,248,5.8,5.8,53,0.00,-SN,,0.00,0.0,WeatherDisplay:10.37,2013-02-24 11:06:00,
2013-02-24 06:11:00,31.3,16.1,29.83,West,270,8.1,8.1,53,0.00,-SN,,0.00,0.0,WeatherDisplay:10.37,2013-02-24 11:11:00,
2013-02-24 06:16:00,31.3,16.1,29.83,WSW,248,6.2,6.2,53,0.00,-SN,,0.00,0.0,WeatherDisplay:10.37,2013-02-24 11:16:00,
2013-02-24 06:21:00,31.3,16.1,29.83,WSW,248,6.0,6.0,53,0.00,-SN,,0.00,0.0,WeatherDisplay:10.37,2013-02-24 11:21:00,
2013-02-24 06:26:00,31.3,16.1,29.83,West,270,8.1,8.1,53,0.00,-SN,,0.00,0.0,WeatherDisplay:10.37,2013-02-24 11:26:00,
2013-02-24 06:31:00,31.3,16.1,29.83,West,270,10.4,10.4,53,0.00,-SN,,0.00,0.0,WeatherDisplay:10.37,2013-02-24 11:31:00,
2013-02-24 06:36:00,31.3,16.1,29.83,WNW,292,9.2,9.2,53,0.00,-SN,,0.00,0.0,WeatherDisplay:10.37,2013-02-24 11:36:00,
2013-02-24 06:41:00,31.3,16.1,29.83,WSW,248,8.1,8.1,53,0.00,-SN,,0.00,0.0,WeatherDisplay:10.37,2013-02-24 11:41:00,
2013-02-24 06:46:00,31.3,16.1,29.83,WSW,248,5.9,5.9,53,0.00,-SN,,0.00,0.0,WeatherDisplay:10.37,2013-02-24 11:46:00,
2013-02-24 06:51:00,31.3,16.1,29.83,West,270,9.2,9.2,53,0.00,-SN,,0.00,0.0,WeatherDisplay:10.37,2013-02-24 11:51:00,
2013-02-24 06:56:00,31.3,16.1,29.83,West,270,15.0,15.0,53,0.00,-SN,,0.00,0.0,WeatherDisplay:10.37,2013-02-24 11:56:00,
2013-02-24 07:01:00,31.1,15.9,29.83,WSW,248,5.8,5.9,53,0.00,-SN,,0.00,0.0,WeatherDisplay:10.37,2013-02-24 12:01:00,
2013-02-24 07:06:00,31.1,15.9,29.83,West,270,6.9,6.9,53,0.00,-SN,,0.00,0.0,WeatherDisplay:10.37,2013-02-24 12:06:00,
2013-02-24 07:11:00,31.1,15.9,29.83,West,270,9.7,9.7,53,0.00,-SN,,0.00,0.0,WeatherDisplay:10.37,2013-02-24 12:11:00,
2013-02-24 07:16:00,31.1,15.9,29.83,WSW,248,5.8,5.8,53,0.00,-SN,,0.00,0.0,WeatherDisplay:10.37,2013-02-24 12:16:00,
2013-02-24 07:21:00,31.1,15.9,29.83,WSW,248,9.2,9.2,53,0.00,-SN,,0.00,0.0,WeatherDisplay:10.37,2013-02-24 12:21:00,
2013-02-24 07:26:00,31.1,15.9,29.83,WSW,248,6.9,6.9,53,0.00,-SN,,0.00,0.0,WeatherDisplay:10.37,2013-02-24 12:26:00,
2013-02-24 07:31:00,31.1,15.9,29.83,WSW,248,8.1,8.1,53,0.00,-SN,,0.00,0.0,WeatherDisplay:10.37,2013-02-24 12:31:00,
2013-02-24 07:36:00,31.1,15.9,29.83,West,270,9.2,9.2,53,0.00,-SN,,0.00,0.0,WeatherDisplay:10.37,2013-02-24 12:36:00,
2013-02-24 07:41:00,31.1,15.9,29.83,West,270,7.6,7.6,53,0.00,-SN,,0.00,0.0,WeatherDisplay:10.37,2013-02-24 12:41:00,
2013-02-24 07:46:00,31.3,16.1,29.83,West,270,8.1,8.1,53,0.00,-SN,,0.00,0.0,WeatherDisplay:10.37,2013-02-24 12:46:00,
2013-02-24 07:51:00,31.1,15.9,29.83,West,270,11.5,11.5,53,0.00,-SN,,0.00,0.0,WeatherDisplay:10.37,2013-02-24 12:51:00,
2013-02-24 07:56:00,31.3,16.1,29.83,West,270,8.1,8.1,53,0.00,-SN,,0.00,0.0,WeatherDisplay:10.37,2013-02-24 12:56:00,
2013-02-24 08:02:00,31.1,15.9,29.83,West,270,13.8,13.8,53,0.00,OVC,,0.00,0.0,WeatherDisplay:10.37,2013-02-24 13:02:00,
2013-02-24 08:07:00,31.1,15.9,29.83,West,270,12.7,12.7,53,0.00,OVC,,0.00,0.0,WeatherDisplay:10.37,2013-02-24 13:07:00,
2013-02-24 08:12:00,31.1,15.9,29.83,West,270,10.4,10.4,53,0.00,OVC,,0.00,0.0,WeatherDisplay:10.37,2013-02-24 13:12:00,
2013-02-24 08:17:00,31.1,15.9,29.83,West,270,8.1,8.1,53,0.00,OVC,,0.00,0.0,WeatherDisplay:10.37,2013-02-24 13:17:00,
2013-02-24 08:22:00,31.1,15.9,29.83,WSW,248,8.1,8.1,53,0.00,OVC,,0.00,0.0,WeatherDisplay:10.37,2013-02-24 13:22:00,
2013-02-24 08:27:00,31.1,15.9,29.83,West,270,12.7,12.7,53,0.00,OVC,,0.00,0.0,WeatherDisplay:10.37,2013-02-24 13:27:00,
2013-02-24 08:32:00,31.1,15.9,29.83,WSW,248,10.4,10.4,53,0.00,OVC,,0.00,0.0,WeatherDisplay:10.37,2013-02-24 13:32:00,
2013-02-24 08:37:00,31.1,15.9,29.83,West,270,16.1,16.1,53,0.00,OVC,,0.00,0.0,WeatherDisplay:10.37,2013-02-24 13:37:00,
2013-02-24 08:42:00,31.5,16.3,29.83,West,270,9.2,9.2,53,0.00,OVC,,0.00,0.0,WeatherDisplay:10.37,2013-02-24 13:42:00,
2013-02-24 08:47:00,31.5,16.3,29.83,West,270,11.5,11.5,53,0.00,OVC,,0.00,0.0,WeatherDisplay:10.37,2013-02-24 13:47:00,
2013-02-24 08:52:00,31.5,16.3,29.83,WSW,248,11.5,11.5,53,0.00,OVC,,0.00,0.0,WeatherDisplay:10.37,2013-02-24 13:52:00,
2013-02-24 08:57:00,31.5,16.3,29.83,West,270,10.5,10.5,53,0.00,OVC,,0.00,0.0,WeatherDisplay:10.37,2013-02-24 13:57:00,
2013-02-24 09:02:00,31.6,16.4,29.83,WSW,248,9.7,9.7,53,0.00,OVC,,0.00,0.0,WeatherDisplay:10.37,2013-02-24 14:02:00,
2013-02-24 09:07:00,31.5,16.3,29.83,WNW,292,10.4,10.4,53,0.00,OVC,,0.00,0.0,WeatherDisplay:10.37,2013-02-24 14:07:00,
2013-02-24 09:12:00,31.5,16.3,29.83,West,270,12.7,12.7,53,0.00,OVC,,0.00,0.0,WeatherDisplay:10.37,2013-02-24 14:12:00,
2013-02-24 09:17:00,31.5,16.3,29.83,WSW,248,13.8,13.8,53,0.00,OVC,,0.00,0.0,WeatherDisplay:10.37,2013-02-24 14:17:00,
2013-02-24 09:22:00,31.6,16.4,29.83,West,270,10.7,10.7,53,0.00,OVC,,0.00,0.0,WeatherDisplay:10.37,2013-02-24 14:22:00,
2013-02-24 09:27:00,31.8,16.6,29.83,WSW,248,9.2,9.2,53,0.00,OVC,,0.00,0.0,WeatherDisplay:10.37,2013-02-24 14:27:00,
2013-02-24 09:32:00,31.8,16.6,29.83,WSW,248,9.2,9.2,53,0.00,OVC,,0.00,0.0,WeatherDisplay:10.37,2013-02-24 14:32:00,
2013-02-24 09:37:00,31.8,16.6,29.83,WSW,248,12.7,12.7,53,0.00,OVC,,0.00,0.0,WeatherDisplay:10.37,2013-02-24 14:37:00,
2013-02-24 09:42:00,31.8,16.6,29.83,West,270,12.7,12.7,53,0.00,OVC,,0.00,0.0,WeatherDisplay:10.37,2013-02-24 14:42:00,
2013-02-24 09:47:00,31.8,16.6,29.83,West,270,8.1,8.1,53,0.00,OVC,,0.00,0.0,WeatherDisplay:10.37,2013-02-24 14:47:00,
2013-02-24 09:52:00,31.8,16.6,29.83,West,270,10.9,10.9,53,0.00,OVC,,0.00,0.0,WeatherDisplay:10.37,2013-02-24 14:52:00,
2013-02-24 09:57:00,32.0,16.8,29.83,West,270,8.1,8.1,53,0.00,OVC,,0.00,0.0,WeatherDisplay:10.37,2013-02-24 14:57:00,
2013-02-24 10:02:00,32.0,16.8,29.83,West,270,12.3,12.3,53,0.00,OVC,,0.00,0.0,WeatherDisplay:10.37,2013-02-24 15:02:00,
2013-02-24 10:07:00,32.2,16.9,29.83,West,270,8.1,8.1,53,0.00,OVC,,0.00,0.0,WeatherDisplay:10.37,2013-02-24 15:07:00,
2013-02-24 10:12:00,32.2,16.9,29.80,WSW,248,10.4,10.4,53,0.00,OVC,,0.00,0.0,WeatherDisplay:10.37,2013-02-24 15:12:00,
2013-02-24 10:17:00,32.2,16.9,29.80,West,270,15.2,15.2,53,0.00,OVC,,0.00,0.0,WeatherDisplay:10.37,2013-02-24 15:17:00,
2013-02-24 10:22:00,32.2,16.9,29.80,WSW,248,10.4,10.4,53,0.00,OVC,,0.00,0.0,WeatherDisplay:10.37,2013-02-24 15:22:00,
2013-02-24 10:27:00,32.0,16.8,29.80,WSW,248,11.5,11.5,53,0.00,OVC,,0.00,0.0,WeatherDisplay:10.37,2013-02-24 15:27:00,
2013-02-24 10:32:00,32.0,16.8,29.80,WSW,248,15.0,15.0,53,0.00,OVC,,0.00,0.0,WeatherDisplay:10.37,2013-02-24 15:32:00,
2013-02-24 10:37:00,31.6,16.4,29.80,West,270,11.5,11.5,53,0.00,OVC,,0.00,0.0,WeatherDisplay:10.37,2013-02-24 15:37:00,
2013-02-24 10:42:00,31.8,17.5,29.80,WSW,248,12.7,12.7,55,0.00,OVC,,0.00,0.0,WeatherDisplay:10.37,2013-02-24 15:42:00,
2013-02-24 10:47:00,31.6,17.3,29.80,WSW,248,13.8,13.8,55,0.00,OVC,,0.00,0.0,WeatherDisplay:10.37,2013-02-24 15:47:00,
2013-02-24 10:52:00,31.3,19.0,29.80,West,270,15.0,15.0,60,0.00,OVC,,0.00,0.0,WeatherDisplay:10.37,2013-02-24 15:52:00,
2013-02-24 10:57:00,31.3,19.4,29.83,WSW,248,15.0,15.0,61,0.00,OVC,,0.00,0.0,WeatherDisplay:10.37,2013-02-24 15:57:00,
2013-02-24 11:02:00,30.9,23.0,29.83,WSW,248,9.2,9.2,72,0.00,-SN,,0.00,0.0,WeatherDisplay:10.37,2013-02-24 16:02:00,
2013-02-24 11:07:00,30.6,22.6,29.83,West,270,12.7,12.7,72,0.00,-SN,,0.00,0.0,WeatherDisplay:10.37,2013-02-24 16:07:00,
2013-02-24 11:12:00,30.6,22.3,29.83,WSW,248,13.0,13.0,71,0.00,-SN,,0.00,0.0,WeatherDisplay:10.37,2013-02-24 16:12:00,
2013-02-24 11:17:00,30.2,21.9,29.83,WNW,292,16.1,16.1,71,0.00,-SN,,0.00,0.0,WeatherDisplay:10.37,2013-02-24 16:17:00,
2013-02-24 11:22:00,30.4,22.4,29.83,WSW,248,10.5,10.5,72,0.00,-SN,,0.00,0.0,WeatherDisplay:10.37,2013-02-24 16:22:00,
2013-02-24 11:27:00,30.4,22.4,29.83,West,270,8.1,8.1,72,0.00,-SN,,0.00,0.0,WeatherDisplay:10.37,2013-02-24 16:27:00,
2013-02-24 11:32:00,30.4,22.4,29.83,WNW,292,11.5,11.5,72,0.00,-SN,,0.00,0.0,WeatherDisplay:10.37,2013-02-24 16:32:00,
2013-02-24 11:37:00,30.4,23.1,29.83,WSW,248,11.2,11.2,74,0.00,-SN,,0.00,0.0,WeatherDisplay:10.37,2013-02-24 16:37:00,
2013-02-24 11:42:00,30.4,24.0,29.83,WSW,248,10.5,10.5,77,0.00,-SN,,0.00,0.0,WeatherDisplay:10.37,2013-02-24 16:42:00,
2013-02-24 11:47:00,30.9,23.9,29.83,WSW,248,10.5,10.5,75,0.00,-SN,,0.00,0.0,WeatherDisplay:10.37,2013-02-24 16:47:00,
2013-02-24 11:52:00,31.3,25.2,29.83,West,270,10.5,10.5,78,0.00,-SN,,0.00,0.0,WeatherDisplay:10.37,2013-02-24 16:52:00,
2013-02-24 11:57:00,31.3,26.1,29.83,WNW,292,15.0,15.0,81,0.00,-SN,,0.00,0.0,WeatherDisplay:10.37,2013-02-24 16:57:00,
2013-02-24 12:02:00,30.9,24.2,29.83,West,270,15.0,15.0,76,0.00,-SN,,0.00,0.0,WeatherDisplay:10.37,2013-02-24 17:02:00,
2013-02-24 12:07:00,31.1,23.8,29.83,WSW,248,11.5,11.5,74,0.00,-SN,,0.00,0.0,WeatherDisplay:10.37,2013-02-24 17:07:00,
2013-02-24 12:12:00,30.9,23.6,29.83,West,270,12.1,12.1,74,0.00,-SN,,0.00,0.0,WeatherDisplay:10.37,2013-02-24 17:12:00,
2013-02-24 12:17:00,30.9,23.9,29.83,WNW,292,13.0,13.0,75,0.00,-SN,,0.00,0.0,WeatherDisplay:10.37,2013-02-24 17:17:00,
2013-02-24 12:22:00,30.9,24.2,29.83,WSW,248,10.4,10.4,76,0.00,-SN,,0.00,0.0,WeatherDisplay:10.37,2013-02-24 17:22:00,
2013-02-24 12:27:00,30.9,24.2,29.85,WSW,248,9.8,9.8,76,0.00,-SN,,0.00,0.0,WeatherDisplay:10.37,2013-02-24 17:27:00,
2013-02-24 12:32:00,30.9,24.9,29.85,WSW,248,14.0,14.0,78,0.00,-SN,,0.00,0.0,WeatherDisplay:10.37,2013-02-24 17:32:00,
2013-02-24 12:37:00,31.1,25.7,29.85,West,270,9.4,9.4,80,0.00,-SN,,0.00,0.0,WeatherDisplay:10.37,2013-02-24 17:37:00,
2013-02-24 12:42:00,31.1,24.7,29.83,WSW,248,11.5,11.5,77,0.00,-SN,,0.00,0.0,WeatherDisplay:10.37,2013-02-24 17:42:00,
2013-02-24 12:47:00,31.1,23.8,29.83,West,270,11.5,11.5,74,0.00,-SN,,0.00,0.0,WeatherDisplay:10.37,2013-02-24 17:47:00,
2013-02-24 12:52:00,31.1,24.4,29.83,WSW,248,15.6,15.6,76,0.00,-SN,,0.00,0.0,WeatherDisplay:10.37,2013-02-24 17:52:00,
2013-02-24 12:57:00,31.6,24.6,29.83,West,270,16.8,16.8,75,0.00,-SN,,0.00,0.0,WeatherDisplay:10.37,2013-02-24 17:57:00,
2013-02-24 13:02:00,31.6,24.0,29.83,West,270,18.1,18.1,73,0.00,-SN,,0.00,0.0,WeatherDisplay:10.37,2013-02-24 18:02:00,
2013-02-24 13:07:00,31.5,24.1,29.83,West,270,17.3,17.3,74,0.00,-SN,,0.00,0.0,WeatherDisplay:10.37,2013-02-24 18:07:00,
2013-02-24 13:12:00,31.6,23.3,29.83,WSW,248,15.0,15.0,71,0.00,-SN,,0.00,0.0,WeatherDisplay:10.37,2013-02-24 18:12:00,
2013-02-24 13:17:00,31.5,23.1,29.83,WNW,292,17.3,17.3,71,0.00,-SN,,0.00,0.0,WeatherDisplay:10.37,2013-02-24 18:17:00,
2013-02-24 13:22:00,31.5,22.8,29.83,WNW,292,17.3,17.3,70,0.00,-SN,,0.00,0.0,WeatherDisplay:10.37,2013-02-24 18:22:00,
2013-02-24 13:27:00,32.0,24.0,29.83,West,270,9.2,9.2,72,0.00,-SN,,0.00,0.0,WeatherDisplay:10.37,2013-02-24 18:27:00,
2013-02-24 13:32:00,32.5,21.7,29.83,West,270,15.0,15.0,64,0.00,-SN,,0.00,0.0,WeatherDisplay:10.37,2013-02-24 18:32:00,
2013-02-24 13:37:00,32.9,22.8,29.83,WNW,292,11.5,11.5,66,0.00,-SN,,0.00,0.0,WeatherDisplay:10.37,2013-02-24 18:37:00,
2013-02-24 13:42:00,32.9,22.0,29.83,WNW,292,13.8,13.8,64,0.00,-SN,,0.00,0.0,WeatherDisplay:10.37,2013-02-24 18:42:00,
2013-02-24 13:47:00,33.3,20.1,29.83,West,270,14.3,14.3,58,0.00,-SN,,0.00,0.0,WeatherDisplay:10.37,2013-02-24 18:47:00,
2013-02-24 13:52:00,32.9,19.7,29.83,WSW,248,16.1,16.1,58,0.00,-SN,,0.00,0.0,WeatherDisplay:10.37,2013-02-24 18:52:00,
2013-02-24 13:57:00,32.7,19.6,29.83,WNW,292,18.4,18.4,58,0.00,-SN,,0.00,0.0,WeatherDisplay:10.37,2013-02-24 18:57:00,
2013-02-24 14:02:00,32.5,18.1,29.83,WNW,292,17.3,17.3,55,0.00,-SN,,0.00,0.0,WeatherDisplay:10.37,2013-02-24 19:02:00,
2013-02-24 14:07:00,32.9,18.5,29.83,WSW,248,12.3,12.3,55,0.00,-SN,,0.00,0.0,WeatherDisplay:10.37,2013-02-24 19:07:00,
2013-02-24 14:12:00,32.7,17.5,29.85,WNW,292,15.2,15.2,53,0.00,-SN,,0.00,0.0,WeatherDisplay:10.37,2013-02-24 19:12:00,
2013-02-24 14:17:00,32.7,17.5,29.85,WNW,292,15.0,15.0,53,0.00,-SN,,0.00,0.0,WeatherDisplay:10.37,2013-02-24 19:17:00,
2013-02-24 14:22:00,33.3,18.0,29.85,WNW,292,10.9,10.9,53,0.00,-SN,,0.00,0.0,WeatherDisplay:10.37,2013-02-24 19:22:00,
2013-02-24 14:27:00,32.2,17.8,29.85,West,270,17.3,17.3,55,0.00,-SN,,0.00,0.0,WeatherDisplay:10.37,2013-02-24 19:27:00,
2013-02-24 14:32:00,31.6,17.3,29.85,WNW,292,17.3,17.3,55,0.00,-SN,,0.00,0.0,WeatherDisplay:10.37,2013-02-24 19:32:00,
2013-02-24 14:37:00,32.4,18.0,29.85,West,270,10.4,10.4,55,0.00,-SN,,0.00,0.0,WeatherDisplay:10.37,2013-02-24 19:37:00,
2013-02-24 14:42:00,32.7,18.3,29.85,West,270,8.1,8.1,55,0.00,-SN,,0.00,0.0,WeatherDisplay:10.37,2013-02-24 19:42:00,
2013-02-24 14:47:00,32.9,17.6,29.85,WSW,248,17.0,17.0,53,0.00,-SN,,0.00,0.0,WeatherDisplay:10.37,2013-02-24 19:47:00,
2013-02-24 14:52:00,33.3,18.0,29.85,WSW,248,13.8,13.8,53,0.00,-SN,,0.00,0.0,WeatherDisplay:10.37,2013-02-24 19:52:00,
2013-02-24 14:57:00,33.3,18.8,29.85,WNW,292,13.8,13.8,55,0.00,-SN,,0.00,0.0,WeatherDisplay:10.37,2013-02-24 19:57:00,
2013-02-24 15:02:00,33.1,18.7,29.85,WNW,292,15.0,15.0,55,0.00,-SN,,0.00,0.0,WeatherDisplay:10.37,2013-02-24 20:02:00,
2013-02-24 15:07:00,32.5,18.1,29.85,WSW,248,17.3,17.3,55,0.00,-SN,,0.00,0.0,WeatherDisplay:10.37,2013-02-24 20:07:00,
2013-02-24 15:12:00,32.5,18.1,29.85,WNW,292,13.2,13.2,55,0.00,-SN,,0.00,0.0,WeatherDisplay:10.37,2013-02-24 20:12:00,
2013-02-24 15:17:00,32.5,18.1,29.85,West,270,12.7,12.7,55,0.00,-SN,,0.00,0.0,WeatherDisplay:10.37,2013-02-24 20:17:00,
2013-02-24 15:22:00,32.4,19.2,29.85,WSW,248,12.5,12.5,58,0.00,-SN,,0.00,0.0,WeatherDisplay:10.37,2013-02-24 20:22:00,
2013-02-24 15:27:00,31.8,19.5,29.85,West,270,13.5,13.5,60,0.00,-SN,,0.00,0.0,WeatherDisplay:10.37,2013-02-24 20:27:00,
2013-02-24 15:32:00,32.0,18.9,29.85,West,270,11.5,11.5,58,0.00,-SN,,0.00,0.0,WeatherDisplay:10.37,2013-02-24 20:32:00,
2013-02-24 15:37:00,32.9,19.7,29.85,WNW,292,9.2,9.2,58,0.00,-SN,,0.00,0.0,WeatherDisplay:10.37,2013-02-24 20:37:00,
2013-02-24 15:42:00,33.3,18.8,29.88,West,270,7.6,7.6,55,0.00,-SN,,0.00,0.0,WeatherDisplay:10.37,2013-02-24 20:42:00,
2013-02-24 15:47:00,32.9,17.6,29.88,West,270,8.1,8.1,53,0.00,-SN,,0.00,0.0,WeatherDisplay:10.37,2013-02-24 20:47:00,
2013-02-24 15:52:00,32.9,17.6,29.88,WNW,292,10.4,10.4,53,0.00,-SN,,0.00,0.0,WeatherDisplay:10.37,2013-02-24 20:52:00,
2013-02-24 15:57:00,33.1,17.8,29.88,West,270,12.7,12.7,53,0.00,-SN,,0.00,0.0,WeatherDisplay:10.37,2013-02-24 20:57:00,
2013-02-24 16:02:00,33.1,17.8,29.88,WNW,292,9.8,9.8,53,0.00,-SN,,0.00,0.0,WeatherDisplay:10.37,2013-02-24 21:02:00,
2013-02-24 16:07:00,33.1,17.8,29.88,WNW,292,10.4,10.4,53,0.00,-SN,,0.00,0.0,WeatherDisplay:10.37,2013-02-24 21:07:00,
2013-02-24 16:12:00,33.1,17.8,29.91,West,270,13.8,13.8,53,0.00,-SN,,0.00,0.0,WeatherDisplay:10.37,2013-02-24 21:12:00,
2013-02-24 16:17:00,33.1,17.8,29.91,WSW,248,10.4,10.4,53,0.00,-SN,,0.00,0.0,WeatherDisplay:10.37,2013-02-24 21:17:00,
2013-02-24 16:23:00,32.9,17.6,29.91,WNW,292,13.2,13.2,53,0.00,-SN,,0.00,0.0,WeatherDisplay:10.37,2013-02-24 21:23:00,
2013-02-24 16:28:00,32.9,17.6,29.88,WSW,248,10.4,10.4,53,0.00,-SN,,0.00,0.0,WeatherDisplay:10.37,2013-02-24 21:28:00,
2013-02-24 16:33:00,32.7,17.5,29.88,West,270,15.0,15.0,53,0.00,-SN,,0.00,0.0,WeatherDisplay:10.37,2013-02-24 21:33:00,
2013-02-24 16:38:00,32.5,17.3,29.88,WSW,248,12.7,12.7,53,0.00,-SN,,0.00,0.0,WeatherDisplay:10.37,2013-02-24 21:38:00,
2013-02-24 16:43:00,32.5,17.3,29.88,WNW,292,15.4,15.4,53,0.00,-SN,,0.00,0.0,WeatherDisplay:10.37,2013-02-24 21:43:00,
2013-02-24 16:48:00,32.5,17.3,29.88,West,270,13.8,13.8,53,0.00,-SN,,0.00,0.0,WeatherDisplay:10.37,2013-02-24 21:48:00,
2013-02-24 16:53:00,32.4,17.1,29.88,WNW,292,14.7,14.7,53,0.00,-SN,,0.00,0.0,WeatherDisplay:10.37,2013-02-24 21:53:00,
2013-02-24 16:58:00,32.2,16.9,29.88,West,270,10.7,10.7,53,0.00,-SN,,0.00,0.0,WeatherDisplay:10.37,2013-02-24 21:58:00,
2013-02-24 17:03:00,31.8,19.5,29.88,WNW,292,11.5,11.5,60,0.00,-SN,,0.00,0.0,WeatherDisplay:10.37,2013-02-24 22:03:00,
2013-02-24 17:08:00,31.1,19.6,29.88,WNW,292,16.1,16.1,62,0.00,-SN,,0.00,0.0,WeatherDisplay:10.37,2013-02-24 22:08:00,
2013-02-24 17:13:00,31.1,20.3,29.88,WNW,292,10.9,10.9,64,0.00,-SN,,0.00,0.0,WeatherDisplay:10.37,2013-02-24 22:13:00,
2013-02-24 17:18:00,30.9,19.4,29.88,WSW,248,16.1,16.1,62,0.00,-SN,,0.00,0.0,WeatherDisplay:10.37,2013-02-24 22:18:00,
2013-02-24 17:23:00,30.7,19.2,29.88,West,270,16.1,16.1,62,0.00,-SN,,0.00,4.5,WeatherDisplay:10.37,2013-02-24 22:23:00,
2013-02-24 17:28:00,30.7,18.9,29.88,WSW,248,13.8,13.8,61,0.00,-SN,,0.00,0.0,WeatherDisplay:10.37,2013-02-24 22:28:00,
2013-02-24 17:33:00,30.7,18.9,29.88,West,270,13.8,13.8,61,0.00,-SN,,0.00,0.0,WeatherDisplay:10.37,2013-02-24 22:33:00,
2013-02-24 17:38:00,30.6,18.7,29.88,West,270,13.8,13.8,61,0.00,-SN,,0.00,0.0,WeatherDisplay:10.37,2013-02-24 22:38:00,
2013-02-24 17:43:00,30.4,18.9,29.88,West,270,11.5,11.5,62,0.00,-SN,,0.00,0.0,WeatherDisplay:10.37,2013-02-24 22:43:00,
2013-02-24 17:48:00,30.4,18.9,29.88,WSW,248,15.0,15.0,62,0.00,-SN,,0.00,0.0,WeatherDisplay:10.37,2013-02-24 22:48:00,
2013-02-24 17:53:00,30.2,18.7,29.88,West,270,11.5,11.5,62,0.00,-SN,,0.00,0.0,WeatherDisplay:10.37,2013-02-24 22:53:00,
2013-02-24 17:58:00,30.4,18.9,29.91,WNW,292,12.7,12.7,62,0.00,-SN,,0.00,0.0,WeatherDisplay:10.37,2013-02-24 22:58:00,
2013-02-24 18:03:00,30.4,18.9,29.91,WNW,292,11.5,11.5,62,0.00,-SN,,0.00,0.0,WeatherDisplay:10.37,2013-02-24 23:03:00,
2013-02-24 18:08:00,30.4,19.3,29.91,WSW,248,10.4,10.4,63,0.00,-SN,,0.00,0.0,WeatherDisplay:10.37,2013-02-24 23:08:00,
2013-02-24 18:13:00,30.4,18.9,29.94,West,270,11.5,11.8,62,0.00,-SN,,0.00,0.0,WeatherDisplay:10.37,2013-02-24 23:13:00,
2013-02-24 18:18:00,30.2,19.1,29.94,West,270,12.7,12.7,63,0.00,-SN,,0.00,0.0,WeatherDisplay:10.37,2013-02-24 23:18:00,
2013-02-24 18:23:00,30.2,19.1,29.94,WSW,248,10.5,10.5,63,0.00,-SN,,0.00,0.0,WeatherDisplay:10.37,2013-02-24 23:23:00,
2013-02-24 18:28:00,30.2,19.1,29.94,WSW,248,13.8,13.8,63,0.00,-SN,,0.00,0.0,WeatherDisplay:10.37,2013-02-24 23:28:00,
2013-02-24 18:33:00,30.4,18.9,29.94,WSW,248,13.8,13.8,62,0.00,-SN,,0.00,0.0,WeatherDisplay:10.37,2013-02-24 23:33:00,
2013-02-24 18:38:00,30.4,18.9,29.94,WSW,248,12.8,12.8,62,0.00,-SN,,0.00,0.0,WeatherDisplay:10.37,2013-02-24 23:38:00,
2013-02-24 18:43:00,30.4,19.3,29.94,West,270,10.4,10.4,63,0.00,-SN,,0.00,0.0,WeatherDisplay:10.37,2013-02-24 23:43:00,
2013-02-24 18:48:00,30.4,19.3,29.94,WSW,248,14.0,14.0,63,0.00,-SN,,0.00,0.0,WeatherDisplay:10.37,2013-02-24 23:48:00,
2013-02-24 18:53:00,30.4,19.3,29.94,WSW,248,13.8,13.8,63,0.00,-SN,,0.00,0.0,WeatherDisplay:10.37,2013-02-24 23:53:00,
2013-02-24 18:58:00,30.4,19.6,29.94,West,270,18.4,18.4,64,0.00,-SN,,0.00,0.0,WeatherDisplay:10.37,2013-02-24 23:58:00,
2013-02-24 19:03:00,30.2,20.6,29.94,West,270,15.0,15.0,67,0.00,-SN,,0.00,0.0,WeatherDisplay:10.37,2013-02-25 00:03:00,
2013-02-24 19:08:00,30.2,20.6,29.94,West,270,12.7,12.7,67,0.00,-SN,,0.00,0.0,WeatherDisplay:10.37,2013-02-25 00:08:00,
2013-02-24 19:13:00,30.4,20.0,29.94,West,270,16.1,16.1,65,0.00,-SN,,0.00,0.0,WeatherDisplay:10.37,2013-02-25 00:13:00,
2013-02-24 19:18:00,30.4,20.0,29.94,WSW,248,9.8,9.8,65,0.00,-SN,,0.00,0.0,WeatherDisplay:10.37,2013-02-25 00:18:00,
2013-02-24 19:23:00,30.4,20.0,29.94,WSW,248,10.5,10.5,65,0.00,-SN,,0.00,0.0,WeatherDisplay:10.37,2013-02-25 00:23:00,
2013-02-24 19:28:00,30.6,20.2,29.91,WSW,248,10.9,10.9,65,0.00,-SN,,0.00,0.0,WeatherDisplay:10.37,2013-02-25 00:28:00,
2013-02-24 19:33:00,30.6,20.2,29.91,WSW,248,11.8,11.8,65,0.00,-SN,,0.00,0.0,WeatherDisplay:10.37,2013-02-25 00:33:00,
2013-02-24 19:38:00,30.6,20.5,29.91,WNW,292,8.7,8.7,66,0.00,-SN,,0.00,0.0,WeatherDisplay:10.37,2013-02-25 00:38:00,
2013-02-24 19:43:00,30.6,20.2,29.94,WSW,248,9.2,9.2,65,0.00,-SN,,0.00,0.0,WeatherDisplay:10.37,2013-02-25 00:43:00,
2013-02-24 19:48:00,30.6,19.8,29.94,WNW,292,10.5,10.5,64,0.00,-SN,,0.00,0.0,WeatherDisplay:10.37,2013-02-25 00:48:00,
2013-02-24 19:53:00,30.4,19.6,29.94,WSW,248,15.0,15.0,64,0.00,-SN,,0.00,0.0,WeatherDisplay:10.37,2013-02-25 00:53:00,
2013-02-24 19:58:00,30.4,19.6,29.94,WSW,248,11.5,11.5,64,0.00,-SN,,0.00,0.0,WeatherDisplay:10.37,2013-02-25 00:58:00,
2013-02-24 20:03:00,30.2,19.8,29.94,WNW,292,11.5,11.5,65,0.00,-SN,,0.00,0.0,WeatherDisplay:10.37,2013-02-25 01:03:00,
2013-02-24 20:08:00,30.2,19.8,29.94,West,270,12.8,12.8,65,0.00,-SN,,0.00,0.0,WeatherDisplay:10.37,2013-02-25 01:08:00,
2013-02-24 20:13:00,30.2,19.8,29.94,West,270,12.8,12.8,65,0.00,-SN,,0.00,0.0,WeatherDisplay:10.37,2013-02-25 01:13:00,
2013-02-24 20:18:00,30.4,20.0,29.94,WNW,292,11.5,11.5,65,0.00,-SN,,0.00,0.0,WeatherDisplay:10.37,2013-02-25 01:18:00,
2013-02-24 20:23:00,30.6,20.2,29.94,West,270,11.5,11.5,65,0.00,-SN,,0.00,0.0,WeatherDisplay:10.37,2013-02-25 01:23:00,
2013-02-24 20:28:00,30.4,20.0,29.94,West,270,13.8,13.8,65,0.00,-SN,,0.00,0.0,WeatherDisplay:10.37,2013-02-25 01:28:00,
2013-02-24 20:33:00,30.6,20.2,29.94,WSW,248,11.5,11.5,65,0.00,-SN,,0.00,0.0,WeatherDisplay:10.37,2013-02-25 01:33:00,
2013-02-24 20:38:00,30.6,20.2,29.94,WSW,248,11.5,11.5,65,0.00,-SN,,0.00,0.0,WeatherDisplay:10.37,2013-02-25 01:38:00,
2013-02-24 20:43:00,30.6,20.2,29.97,WSW,248,10.4,10.4,65,0.00,-SN,,0.00,0.0,WeatherDisplay:10.37,2013-02-25 01:43:00,
2013-02-24 20:48:00,30.7,20.0,29.97,West,270,12.7,12.7,64,0.00,-SN,,0.00,0.0,WeatherDisplay:10.37,2013-02-25 01:48:00,
2013-02-24 20:53:00,30.7,20.0,29.97,West,270,10.5,10.5,64,0.00,-SN,,0.00,0.0,WeatherDisplay:10.37,2013-02-25 01:53:00,
2013-02-24 20:58:00,30.9,20.2,29.97,West,270,15.0,15.0,64,0.00,-SN,,0.00,0.0,WeatherDisplay:10.37,2013-02-25 01:58:00,
2013-02-24 21:03:00,30.9,20.2,29.97,WSW,248,12.7,12.7,64,0.00,-SN,,0.00,0.0,WeatherDisplay:10.37,2013-02-25 02:03:00,
2013-02-24 21:08:00,31.1,20.3,29.97,West,270,13.8,13.8,64,0.00,-SN,,0.00,0.0,WeatherDisplay:10.37,2013-02-25 02:08:00,
2013-02-24 21:13:00,31.1,20.3,29.97,West,270,11.5,11.5,64,0.00,-SN,,0.00,0.0,WeatherDisplay:10.37,2013-02-25 02:13:00,
2013-02-24 21:18:00,31.1,22.5,29.97,West,270,11.5,11.5,70,0.00,-SN,,0.00,0.0,WeatherDisplay:10.37,2013-02-25 02:18:00,
2013-02-24 21:23:00,31.1,20.3,29.97,WSW,248,12.7,12.7,64,0.00,-SN,,0.00,0.0,WeatherDisplay:10.37,2013-02-25 02:23:00,
2013-02-24 21:28:00,31.1,20.3,29.97,West,270,12.7,12.7,64,0.00,-SN,,0.00,0.0,WeatherDisplay:10.37,2013-02-25 02:28:00,
2013-02-24 21:33:00,31.1,20.7,29.97,West,270,13.8,13.8,65,0.00,-SN,,0.00,0.0,WeatherDisplay:10.37,2013-02-25 02:33:00,
2013-02-24 21:38:00,31.1,21.4,29.97,West,270,12.7,12.7,67,0.00,-SN,,0.00,0.0,WeatherDisplay:10.37,2013-02-25 02:38:00,
2013-02-24 21:43:00,31.1,21.4,29.97,West,270,11.5,11.5,67,0.00,-SN,,0.00,0.0,WeatherDisplay:10.37,2013-02-25 02:43:00,
2013-02-24 21:48:00,31.1,21.8,29.97,West,270,12.7,12.7,68,0.00,-SN,,0.00,0.0,WeatherDisplay:10.37,2013-02-25 02:48:00,
2013-02-24 21:53:00,31.1,22.1,29.97,West,270,12.3,12.3,69,0.00,-SN,,0.00,0.0,WeatherDisplay:10.37,2013-02-25 02:53:00,
2013-02-24 21:58:00,30.9,22.6,29.97,West,270,12.7,12.7,71,0.00,-SN,,0.00,0.0,WeatherDisplay:10.37,2013-02-25 02:58:00,
2013-02-24 22:03:00,30.9,22.6,29.97,West,270,15.0,15.0,71,0.00,-SN,,0.00,0.0,WeatherDisplay:10.37,2013-02-25 03:03:00,
2013-02-24 22:08:00,30.7,22.4,29.97,West,270,12.7,12.7,71,0.00,-SN,,0.00,0.0,WeatherDisplay:10.37,2013-02-25 03:08:00,
2013-02-24 22:13:00,30.7,22.8,29.97,West,270,18.4,18.4,72,0.00,-SN,,0.00,0.0,WeatherDisplay:10.37,2013-02-25 03:13:00,
2013-02-24 22:18:00,30.7,22.8,29.97,WSW,248,16.1,16.1,72,0.00,-SN,,0.00,0.0,WeatherDisplay:10.37,2013-02-25 03:18:00,
2013-02-24 22:23:00,30.7,23.4,29.97,WSW,248,13.8,13.8,74,0.00,-SN,,0.00,0.0,WeatherDisplay:10.37,2013-02-25 03:23:00,
2013-02-24 22:28:00,30.9,23.3,29.97,West,270,12.8,12.8,73,0.00,-SN,,0.00,0.0,WeatherDisplay:10.37,2013-02-25 03:28:00,
2013-02-24 22:33:00,30.9,23.0,29.97,WSW,248,12.7,12.7,72,0.00,-SN,,0.00,0.0,WeatherDisplay:10.37,2013-02-25 03:33:00,
2013-02-24 22:38:00,30.7,22.8,29.97,WNW,292,15.0,15.0,72,0.00,-SN,,0.00,0.0,WeatherDisplay:10.37,2013-02-25 03:38:00,
2013-02-24 22:43:00,30.7,22.8,29.97,West,270,15.2,15.2,72,0.00,-SN,,0.00,0.0,WeatherDisplay:10.37,2013-02-25 03:43:00,
2013-02-24 22:48:00,30.7,22.4,29.97,WSW,248,10.7,10.7,71,0.00,-SN,,0.00,0.0,WeatherDisplay:10.37,2013-02-25 03:48:00,
2013-02-24 22:53:00,30.7,22.4,29.97,WSW,248,15.0,15.0,71,0.00,-SN,,0.00,0.0,WeatherDisplay:10.37,2013-02-25 03:53:00,
2013-02-24 22:58:00,30.9,22.6,29.97,West,270,15.0,15.0,71,0.00,-SN,,0.00,0.0,WeatherDisplay:10.37,2013-02-25 03:58:00,
2013-02-24 23:03:00,30.9,22.6,29.97,WSW,248,15.0,15.0,71,0.00,OVC,,0.00,0.0,WeatherDisplay:10.37,2013-02-25 04:03:00,
2013-02-24 23:08:00,30.9,22.6,29.97,West,270,12.7,12.7,71,0.00,OVC,,0.00,0.0,WeatherDisplay:10.37,2013-02-25 04:08:00,
2013-02-24 23:13:00,31.1,22.8,29.97,West,270,10.4,10.5,71,0.00,OVC,,0.00,0.0,WeatherDisplay:10.37,2013-02-25 04:13:00,
2013-02-24 23:18:00,30.9,22.3,29.97,West,270,12.7,12.7,70,0.00,OVC,,0.00,0.0,WeatherDisplay:10.37,2013-02-25 04:18:00,
2013-02-24 23:23:00,31.1,22.1,29.97,WNW,292,13.8,13.8,69,0.00,OVC,,0.00,0.0,WeatherDisplay:10.37,2013-02-25 04:23:00,
2013-02-24 23:28:00,31.3,21.6,29.97,WSW,248,13.8,13.8,67,0.00,OVC,,0.00,0.0,WeatherDisplay:10.37,2013-02-25 04:28:00,
2013-02-24 23:33:00,31.3,21.2,29.97,WNW,292,11.5,11.5,66,0.00,OVC,,0.00,0.0,WeatherDisplay:10.37,2013-02-25 04:33:00,
2013-02-24 23:38:00,31.5,21.0,29.97,West,270,9.2,9.2,65,0.00,OVC,,0.00,0.0,WeatherDisplay:10.37,2013-02-25 04:38:00,
2013-02-24 23:43:00,31.6,20.5,29.97,WSW,248,10.5,10.5,63,0.00,OVC,,0.00,0.0,WeatherDisplay:10.37,2013-02-25 04:43:00,
2013-02-24 23:48:00,31.6,20.1,29.97,West,270,12.7,12.7,62,0.00,OVC,,0.00,0.0,WeatherDisplay:10.37,2013-02-25 04:48:00,
2013-02-24 23:53:00,31.8,19.9,29.97,WNW,292,13.8,13.8,61,0.00,OVC,,0.00,0.0,WeatherDisplay:10.37,2013-02-25 04:53:00,
2013-02-24 23:58:00,32.0,20.1,29.97,WNW,292,13.8,13.8,61,0.00,OVC,,0.00,0.0,WeatherDisplay:10.37,2013-02-25 04:58:00,